Temperature
9 9 9 9 8 8 8 8 7 7 7 7 7 7 6 6 6 5 5 5 4 4 3 3 2 2 1 1 0 -0 -1 -1 -1 -1 -1 -2 -2 -2
9 9 9 9 8 8 8 8 7 7 6 7 6 6 6 5 5 5 4 4 4 3 3 2 2 1 1 0 -0 -1 -1 -1 -2 -2 -2 -2 -2 -3
9 9 9 9 8 8 8 7 7 7 6 6 6 6 5 5 5 4 4 4 3 3 2 2 1 1 0 -0 -1 -1 -2 -2 -2 -2 -3 -3 -3 -3
9 9 9 8 8 8 8 7 7 7 6 6 6 5 5 5 4 4 4 3 3 2 2 1 1 0 -0 -1 -1 -2 -2 -2 -2 -3 -3 -4 -4 -4
10 9 9 8 8 8 8 7 7 6 6 5 5 5 5 4 4 4 3 3 3 2 1 1 1 -0 -1 -1 -2 -2 -2 -3 -3 -4 -4 -4 -4 -5
9 9 9 8 8 8 7 7 7 6 6 5 5 5 4 4 3 3 3 3 2 2 1 0 -0 -1 -1 -2 -2 -2 -3 -3 -4 -4 -4 -4 -5 -5
9 9 8 8 8 7 7 7 6 6 5 5 5 4 4 3 3 2 2 2 2 1 1 0 -0 -1 -1 -2 -2 -3 -3 -4 -4 -4 -5 -5 -5 -5
9 9 8 8 8 7 7 6 6 5 5 5 4 4 3 3 2 2 1 1 0 0 0 0 -1 -1 -2 -2 -3 -3 -4 -4 -5 -5 -5 -5 -6 -6
9 9 8 8 7 7 7 6 6 5 5 4 4 3 3 2 2 1 1 0 -0 -1 -1 -0 -1 -1 -2 -3 -3 -4 -4 -5 -5 -5 -5 -6 -6 -6
9 8 8 8 7 7 6 6 5 5 4 4 3 3 2 2 1 1 0 -0 -1 -1 -1 -2 -2 -2 -2 -3 -3 -4 -5 -5 -5 -6 -6 -6 -6 -6
8 8 7 7 7 7 6 6 5 5 4 3 3 2 2 1 1 0 -0 -1 -1 -1 -2 -3 -3 -3 -2 -3 -3 -4 -5 -5 -5 -6 -6 -6 -6 -6
8 7 7 7 7 6 6 5 5 4 4 3 2 2 1 1 0 -0 -1 -1 -2 -3 -3 -4 -4 -5 -4 -3 -4 -4 -5 -5 -6 -6 -6 -6 -7 -7
8 7 7 7 6 6 5 5 4 4 3 2 2 1 1 0 -0 -1 -1 -2 -3 -3 -4 -5 -5 -5 -6 -5 -4 -4 -5 -6 -6 -6 -6 -6 -7 -7
7 7 7 6 6 5 4 4 4 3 3 2 1 1 1 0 -0 -1 -2 -3 -3 -4 -4 -5 -5 -6 -6 -6 -6 -5 -5 -6 -6 -6 -6 -6 -6 -7
7 7 6 6 5 4 4 4 3 3 2 2 1 1 0 -1 -1 -2 -2 -3 -3 -4 -5 -5 -6 -6 -6 -6 -6 -6 -6 -6 -6 -6 -6 -6 -7 -7
7 6 5 5 4 4 4 3 2 2 2 1 1 0 -0 -1 -2 -2 -3 -3 -3 -4 -5 -5 -6 -6 -5 -5 -6 -6 -7 -7 -7 -6 -6 -6 -6 -7
6 6 5 4 4 4 3 2 2 1 1 1 0 -0 -1 -1 -2 -3 -3 -4 -4 -4 -5 -5 -5 -5 -5 -5 -6 -6 -7 -7 -7 -7 -7 -6 -6 -7
6 5 5 4 4 3 3 2 2 1 1 0 -0 -1 -1 -2 -3 -3 -4 -4 -5 -5 -5 -5 -5 -5 -5 -5 -6 -6 -7 -7 -7 -7 -7 -7 -6 -6
5 5 5 4 4 3 2 2 1 1 0 -0 -1 -1 -2 -2 -3 -4 -4 -5 -5 -5 -6 -6 -6 -6 -6 -6 -6 -7 -7 -7 -7 -7 -7 -7 -7 -6
5 5 4 4 3 3 2 1 1 0 -0 -1 -1 -2 -2 -3 -4 -4 -5 -5 -6 -6 -6 -6 -7 -7 -8 -8 -7 -6 -7 -7 -7 -7 -7 -6 -6 -6
5 4 4 3 3 2 2 1 0 -0 -1 -1 -2 -2 -3 -3 -4 -5 -5 -6 -6 -6 -6 -6 -7 -7 -7 -7 -7 -7 -6 -7 -7 -8 -7 -7 -6 -6
4 4 3 3 2 2 1 1 -0 -1 -1 -2 -2 -3 -3 -4 -5 -5 -6 -6 -6 -7 -7 -7 -7 -7 -7 -7 -7 -7 -7 -6 -7 -7 -7 -8 -8 -8
4 4 3 3 2 1 1 0 -1 -1 -2 -2 -2 -3 -4 -4 -5 -5 -6 -6 -6 -7 -7 -7 -7 -7 -8 -8 -8 -7 -7 -7 -6 -6 -6 -7 -7 -7
Wind_Speed
9 9 6 5 5 4 4 4 4 3 4 3 2 2 3 3 5 5 7 9 10 11 12 13 13 14 15 16 17 18 19 19 20 20 21 21 21 22
7 8 7 5 5 4 4 3 4 5 4 3 3 2 1 3 5 5 7 8 10 11 12 12 13 14 15 16 16 17 18 18 19 19 20 21 21 22
9 10 9 7 6 5 4 4 4 4 5 3 2 1 1 2 4 5 6 7 8 10 11 12 13 14 14 15 15 16 17 18 18 18 19 20 21 22
11 10 9 7 8 6 5 5 5 5 5 5 2 2 2 2 2 3 5 6 8 10 11 11 12 13 14 14 15 16 16 16 17 18 19 20 21 22
12 12 11 10 9 7 6 6 5 4 4 4 3 1 1 1 2 3 3 4 7 8 9 11 12 13 13 13 14 15 15 15 16 18 19 20 21 22
11 11 11 11 11 10 8 7 5 5 4 3 3 1 1 1 1 2 4 3 4 5 8 10 11 12 12 13 14 14 14 15 16 18 19 20 20 21
10 10 10 11 12 10 7 7 7 5 4 3 2 1 1 1 2 1 3 4 4 2 4 6 7 7 9 12 13 14 15 15 16 17 18 19 20 21
10 9 9 10 11 12 11 10 10 7 6 4 3 3 3 2 1 1 1 3 4 2 3 5 3 4 6 9 12 14 13 14 16 17 18 20 20 21
11 9 7 8 9 7 8 8 7 7 7 6 4 4 3 3 2 1 1 2 3 3 3 4 3 5 7 10 12 12 13 15 16 17 19 19 20 20
10 10 10 9 9 9 8 6 4 3 4 4 4 4 2 2 2 2 1 1 2 2 1 3 3 5 7 8 9 11 14 15 16 18 18 19 20 19
8 9 10 9 12 13 10 8 5 3 3 5 4 4 4 4 4 3 2 2 3 2 1 2 3 5 5 3 7 12 15 15 17 17 18 19 19 19
7 7 11 11 13 14 10 9 7 5 4 4 4 4 4 4 4 2 2 0 1 2 1 2 2 4 4 3 4 8 10 13 17 17 18 18 19 14
8 7 7 13 14 14 11 7 8 7 6 5 3 3 3 2 2 2 1 1 1 2 2 1 2 2 3 5 5 5 6 8 11 12 15 18 19 15
9 7 8 14 14 13 9 9 11 9 5 4 3 2 1 0 1 2 2 2 2 4 5 2 2 3 4 5 6 5 6 7 6 7 10 17 17 18
8 12 14 15 13 10 11 12 10 6 5 4 3 1 1 1 1 2 3 4 4 3 3 4 3 4 4 5 5 5 5 6 5 6 8 10 9 10
10 13 16 14 10 10 9 7 5 5 4 4 3 2 1 1 1 1 2 2 3 3 5 6 5 4 4 6 6 7 6 5 7 9 9 9 9 9
12 8 7 7 6 5 5 5 4 4 4 3 3 2 2 1 1 1 1 2 2 3 4 4 7 7 7 6 4 6 6 7 7 8 9 10 9 8
13 9 8 7 7 7 6 5 4 4 3 3 3 2 2 1 1 1 1 1 2 3 3 3 5 5 4 4 6 6 5 5 7 8 7 8 9 8
9 8 8 8 7 7 6 5 4 4 4 4 3 3 2 1 1 1 2 2 3 3 3 3 3 4 5 6 6 4 4 7 8 8 7 7 8 11
7 8 8 8 7 7 6 5 5 4 4 4 3 2 2 2 1 0 1 2 3 3 4 3 3 3 3 4 5 6 9 8 7 8 8 8 8 11
7 7 7 7 7 7 6 6 6 5 4 4 3 3 2 2 1 0 1 3 3 2 4 5 5 8 3 2 4 6 6 11 10 8 7 7 6 5
8 8 7 7 7 7 7 6 5 5 5 4 3 3 2 2 1 1 1 1 2 3 4 4 5 4 1 2 5 7 7 8 12 13 10 7 5 5
9 8 8 8 7 7 6 6 6 5 5 4 4 3 2 2 1 1 1 1 2 3 3 4 4 3 2 3 4 6 8 9 7 8 7 11 13 13
Wind_Direction
194 191 192 189 182 180 168 167 175 231 269 263 265 284 277 272 286 286 282 291 298 300 303 306 309 313 316 318 319 319 320 320 320 320 320 320 322 324
186 185 193 186 183 181 179 177 178 190 233 251 241 267 298 298 297 288 283 296 298 302 304 307 311 314 317 318 318 321 322 322 323 323 323 323 323 324
186 189 194 184 184 186 178 175 184 181 220 259 235 254 264 292 311 300 292 293 297 302 305 308 312 317 319 319 320 321 323 324 324 325 325 325 326 326
190 188 192 184 189 185 183 189 195 194 204 242 244 238 248 277 301 303 304 300 296 301 307 311 315 318 319 320 321 324 326 327 328 330 329 328 328 327
189 190 191 184 192 191 187 193 197 193 196 215 241 228 258 298 315 307 308 301 308 307 311 315 315 320 321 323 325 328 329 328 329 329 329 329 329 328
189 190 189 188 193 191 192 196 185 181 181 199 227 236 253 289 299 303 313 315 315 308 313 315 316 321 323 325 327 327 328 328 328 328 329 329 330 328
185 187 189 188 189 187 186 185 177 180 179 191 211 221 245 284 278 274 295 319 306 299 317 310 309 311 317 322 324 325 326 328 329 330 331 331 329 326
183 184 183 184 187 187 183 177 174 178 185 184 202 221 238 235 235 279 306 337 307 314 320 302 302 303 306 309 318 325 329 331 333 332 331 330 327 327
181 178 175 180 177 176 175 170 174 175 172 173 189 210 215 216 197 222 246 268 270 299 325 289 303 307 308 312 319 326 331 333 334 332 330 329 328 327
176 174 174 175 174 165 157 155 159 169 173 167 177 193 192 180 178 186 219 287 295 309 346 285 305 308 313 309 315 328 334 334 333 332 331 331 329 327
168 168 168 170 168 159 154 154 150 145 130 132 122 108 104 103 101 86 51 15 321 303 356 309 306 315 305 297 313 326 330 330 331 332 332 332 330 329
157 164 168 166 164 160 161 160 164 167 142 122 95 79 74 79 84 101 148 81 326 289 313 327 310 332 316 298 303 314 320 324 329 331 332 333 332 331
164 167 169 164 162 163 160 164 165 150 139 132 118 93 73 66 49 35 77 161 207 256 275 328 305 313 289 301 305 303 309 316 320 321 327 330 331 331
165 163 160 158 156 154 153 149 141 131 125 124 120 114 98 53 1 5 358 335 269 248 256 258 256 277 296 299 296 307 313 307 308 313 319 325 327 327
152 151 147 146 143 143 143 140 135 131 132 133 144 159 162 142 64 23 10 0 349 321 281 277 265 277 273 274 286 295 310 309 312 316 317 317 314 315
133 135 133 131 128 129 131 129 126 136 139 146 148 133 110 98 76 33 2 354 354 335 324 312 294 280 278 271 270 282 288 292 311 317 317 312 307 303
134 125 126 131 133 126 121 121 120 122 123 127 129 125 115 89 42 25 24 11 353 318 323 327 324 304 268 258 275 278 290 298 303 315 320 317 309 303
136 143 149 151 153 151 147 140 134 137 136 133 132 133 137 129 55 10 13 2 328 311 310 318 337 343 339 294 238 270 290 298 310 315 314 314 311 310
140 151 156 158 155 153 152 151 153 149 142 139 139 139 137 131 93 11 351 341 328 319 312 315 336 353 344 328 307 273 289 309 314 315 309 304 301 304
147 153 156 155 153 154 154 151 146 142 141 142 144 145 141 139 121 345 323 321 321 321 320 321 323 324 306 295 296 294 298 301 308 310 308 306 293 293
150 148 150 150 150 151 152 151 151 152 152 152 154 154 151 142 156 284 310 330 341 319 315 310 302 319 303 294 299 300 299 307 310 304 305 312 312 314
149 148 146 147 149 150 150 149 149 151 153 155 159 159 158 161 179 222 294 309 308 302 300 304 315 329 339 306 308 308 310 316 322 321 311 298 307 316
150 147 146 148 148 148 149 152 154 158 162 163 163 163 161 163 178 209 267 298 314 322 327 328 334 334 310 288 301 307 312 321 324 330 322 325 321 306
Height
1507 1510 1512 1514 1515 1517 1517 1518 1519 1517 1515 1515 1515 1514 1512 1511 1509 1506 1504 1502 1500 1497 1494 1492 1488 1485 1482 1478 1475 1472 1468 1464 1461 1457 1454 1450 1446 1443
1502 1505 1507 1509 1510 1512 1513 1514 1514 1514 1512 1511 1511 1510 1508 1507 1505 1502 1500 1498 1495 1493 1490 1487 1484 1480 1477 1474 1470 1467 1463 1459 1456 1452 1449 1445 1442 1438
1496 1499 1501 1504 1506 1507 1508 1509 1509 1509 1508 1507 1507 1506 1504 1503 1501 1498 1496 1493 1491 1488 1485 1482 1479 1476 1472 1469 1465 1462 1458 1454 1451 1447 1444 1440 1437 1433
1490 1493 1495 1498 1500 1502 1503 1503 1504 1504 1504 1503 1502 1501 1500 1498 1496 1494 1492 1489 1487 1484 1481 1478 1475 1471 1467 1464 1460 1457 1453 1450 1446 1443 1439 1436 1432 1428
1485 1487 1490 1492 1494 1496 1497 1498 1499 1499 1499 1498 1497 1496 1495 1493 1491 1489 1487 1485 1482 1479 1477 1473 1470 1466 1463 1459 1456 1452 1449 1445 1442 1438 1435 1431 1427 1424
1479 1482 1484 1486 1489 1490 1491 1492 1493 1494 1494 1493 1492 1491 1490 1488 1486 1484 1482 1480 1478 1475 1472 1469 1466 1462 1459 1455 1451 1448 1444 1441 1437 1434 1430 1426 1423 1419
1473 1476 1479 1481 1483 1485 1486 1487 1488 1488 1488 1488 1487 1486 1484 1483 1481 1479 1477 1475 1472 1470 1467 1465 1461 1458 1454 1450 1447 1443 1440 1437 1433 1429 1426 1422 1418 1415
1468 1470 1473 1476 1478 1479 1481 1482 1483 1483 1483 1483 1482 1481 1480 1479 1478 1476 1473 1470 1467 1465 1462 1460 1457 1453 1449 1446 1443 1439 1436 1432 1429 1425 1421 1417 1414 1410
1462 1465 1468 1470 1473 1474 1476 1477 1478 1478 1479 1479 1478 1477 1476 1475 1474 1472 1470 1467 1464 1461 1457 1454 1452 1448 1446 1442 1439 1436 1432 1428 1425 1421 1417 1413 1409 1406
1457 1460 1463 1465 1468 1470 1471 1472 1473 1474 1474 1474 1474 1474 1473 1472 1470 1469 1466 1464 1461 1458 1454 1450 1446 1444 1441 1439 1436 1432 1429 1425 1421 1417 1413 1409 1405 1401
1453 1456 1458 1461 1463 1465 1467 1468 1469 1470 1470 1470 1470 1470 1469 1468 1467 1465 1462 1460 1456 1454 1451 1447 1443 1439 1437 1435 1433 1429 1425 1421 1417 1413 1409 1405 1401 1397
1448 1451 1454 1456 1459 1460 1462 1464 1465 1465 1466 1466 1467 1466 1466 1464 1463 1461 1459 1457 1453 1450 1448 1445 1441 1437 1433 1430 1429 1426 1422 1418 1414 1410 1406 1402 1397 1393
1443 1446 1449 1452 1454 1457 1458 1460 1461 1462 1462 1463 1463 1463 1462 1461 1460 1458 1456 1454 1452 1449 1446 1443 1440 1436 1433 1428 1423 1422 1418 1414 1410 1406 1403 1398 1394 1390
1439 1442 1445 1448 1451 1453 1455 1456 1458 1459 1459 1459 1459 1459 1459 1458 1457 1455 1454 1451 1449 1447 1444 1441 1438 1435 1431 1425 1421 1418 1415 1412 1407 1403 1399 1395 1391 1388
1435 1439 1442 1445 1447 1449 1451 1453 1454 1455 1456 1456 1456 1456 1456 1455 1454 1452 1450 1449 1447 1445 1442 1439 1436 1433 1429 1425 1420 1415 1411 1408 1405 1400 1396 1392 1387 1383
1432 1435 1439 1441 1444 1446 1448 1450 1451 1452 1453 1453 1453 1453 1453 1452 1451 1449 1447 1445 1444 1442 1440 1437 1434 1430 1426 1423 1419 1415 1411 1406 1402 1397 1393 1389 1385 1381
1428 1432 1435 1438 1440 1443 1445 1446 1448 1449 1450 1450 1450 1450 1450 1449 1448 1446 1444 1443 1440 1438 1436 1434 1431 1428 1424 1420 1416 1413 1409 1404 1400 1396 1390 1386 1383 1379
1424 1427 1431 1434 1437 1439 1441 1443 1445 1446 1447 1447 1448 1447 1447 1446 1445 1443 1442 1440 1438 1436 1433 1430 1427 1424 1421 1418 1416 1410 1407 1402 1398 1394 1390 1384 1380 1377
1421 1424 1427 1431 1433 1436 1438 1440 1442 1443 1444 1445 1445 1445 1444 1443 1442 1441 1439 1438 1436 1434 1432 1429 1426 1422 1418 1415 1413 1410 1405 1400 1395 1392 1388 1383 1379 1375
1418 1421 1424 1427 1430 1433 1435 1437 1439 1440 1441 1442 1442 1442 1441 1441 1440 1439 1437 1436 1434 1432 1430 1428 1425 1422 1419 1416 1412 1409 1405 1399 1394 1389 1385 1382 1378 1375
1414 1418 1421 1424 1427 1430 1433 1434 1436 1437 1438 1439 1439 1439 1439 1438 1437 1437 1436 1434 1433 1431 1428 1426 1424 1422 1419 1415 1411 1407 1404 1400 1394 1389 1384 1380 1375 1372
1412 1415 1419 1422 1425 1428 1430 1432 1433 1434 1435 1436 1436 1436 1436 1436 1435 1435 1434 1433 1431 1429 1427 1425 1423 1420 1417 1414 1410 1406 1401 1398 1395 1390 1385 1381 1377 1372
1409 1413 1416 1419 1422 1425 1427 1429 1431 1432 1433 1433 1434 1434 1434 1434 1433 1433 1432 1431 1430 1428 1426 1423 1421 1419 1416 1413 1409 1405 1401 1397 1393 1389 1386 1382 1379 1375